User: anonymous   Login
Location: Unspecified
(0.0000°N, 0.0000°E)
Time: 20:12:23
(UTC+00:00)
Language:

TANYUSHA 1 - Orbit

View from above orbital plane
View from above orbital plane
View from above satellite
View from above satellite

Ground track
Ground track

The orbit data is extracted from the following two-line orbital elements,

1 42911U 98067NA  18351.31468405  .00027450  00000-0  19522-3 0  9996
2 42911  51.6349 151.5068 0005090 179.5010 253.1743 15.73642513 76128
Epoch (UTC): 17 December 2018 07:33:08
Eccentricity: 0.0005090
inclination: 51.6349°
perigee height: 345 km
apogee height: 352 km
right ascension of ascending node: 151.5068°
argument of perigee: 179.5010°
revolutions per day: 15.73642513
mean anomaly at epoch: 253.1743°
orbit number at epoch: 7612

The dashed part of the orbit path shows where the satellite is in the earth's shadow,  

DLR